Fort Yukon, AK

12:32 AM AKDT on August 24, 2017 (GMT -0800)
Fort Yukon

Weather History for PFYU - January, 2013

Change the Weather History Date:

Wednesday, January 9, 2013

  Actual Average Record
Temperature  
Mean Temperature -14 °F -  
Max Temperature 0 °F -10 °F 28 °F (2005)
Min Temperature -27 °F -22 °F -56 °F (1997)
Degree Days  
Heating Degree Days 78    
Moisture  
Dew Point -12 °F    
Average Humidity 87    
Maximum Humidity 100    
Minimum Humidity 59    
Precipitation  
Precipitation 0.00 in - - ()
Sea Level Pressure  
Sea Level Pressure 30.10 in    
Wind  
Wind Speed 2 mph (NE)    
Max Wind Speed 7 mph    
Max Gust Speed -    
Visibility 10 miles    
Events      
Averages and records for this station are not official NWS values.
T = Trace of Precipitation, MM = Missing Value Source: NWS Daily Summary

Daily Weather History Graph

Daily Weather History Graph

Search for Another Location

Airport or City:

Trip Planner

Search our weather history database for the weather conditions in past years. The results will help you decide how hot, cold, wet, or windy it might be!

Date:

Astronomy

Jan. 09, 2013 Rise Set
Actual Time 11:00 AM AKST 2:36 PM AKST
Civil Twilight 9:30 AM AKST 4:07 PM AKST
Nautical Twilight 8:14 AM AKST 5:22 PM AKST
Astronomical Twilight 7:09 AM AKST 6:27 PM AKST
Moon 8:53 AM AKST (1/9) 12:44 PM AKST (1/9)
Length of Visible Light 6h 37m
Length of Day
3h 35m
Waning Crescent, 5% of the Moon is Illuminated
Jan 9
Waning Crescent
Jan 11
New
Jan 18
First Quarter
Jan 26
Full
Feb 3
Last Quarter

Hourly Weather History & Observations

Time (AKST) Temp. Windchill Dew Point Humidity Pressure Visibility Wind Dir Wind Speed Gust Speed Precip Events Conditions
12:16 AM -5.8 °F - -9.4 °F 84% 30.04 in 10.0 mi Calm Calm - N/A   Overcast
12:36 AM -5.8 °F - -9.4 °F 84% 30.05 in 10.0 mi Calm Calm - N/A   Overcast
12:56 AM -5.8 °F - -7.6 °F 92% 30.05 in 10.0 mi Calm Calm - N/A   Overcast
1:16 AM -5.8 °F - -7.6 °F 92% 30.06 in 10.0 mi Calm Calm - N/A   Overcast
1:36 AM -5.8 °F - -9.4 °F 84% 30.06 in 10.0 mi Calm Calm - N/A   Mostly Cloudy
1:56 AM -7.6 °F - -9.4 °F 92% 30.06 in 10.0 mi Calm Calm - N/A   Clear
2:16 AM -9.4 °F - -16.6 °F 71% 30.07 in 10.0 mi Calm Calm - N/A   Mostly Cloudy
2:36 AM -7.6 °F - -7.6 °F 100% 30.08 in 10.0 mi Calm Calm - N/A   Overcast
2:56 AM -7.6 °F - -14.8 °F 71% 30.08 in 10.0 mi Calm Calm - N/A   Overcast
3:16 AM -11.2 °F - -16.6 °F 77% 30.08 in 10.0 mi Calm Calm - N/A   Mostly Cloudy
3:36 AM -13.0 °F - -18.4 °F 77% 30.09 in 10.0 mi Calm Calm - N/A   Partly Cloudy
3:56 AM -14.8 °F - -18.4 °F 84% 30.09 in 10.0 mi Calm Calm - N/A   Clear
4:16 AM -16.6 °F - -20.2 °F 84% 30.10 in 10.0 mi Calm Calm - N/A   Partly Cloudy
4:36 AM -16.6 °F - -23.8 °F 70% 30.10 in 10.0 mi Calm Calm - N/A   Clear
4:56 AM -18.4 °F - -22.0 °F 84% 30.10 in 10.0 mi Calm Calm - N/A   Clear
5:16 AM -22.0 °F - - N/A% 30.10 in 10.0 mi Calm Calm - N/A   Clear
5:36 AM -18.4 °F - -23.8 °F 76% 30.10 in 10.0 mi Calm Calm - N/A   Clear
5:56 AM -22.0 °F - -25.6 °F 83% 30.10 in 10.0 mi Calm Calm - N/A   Clear
6:36 AM -22.0 °F - -29.2 °F 69% 30.10 in 10.0 mi Calm Calm - N/A   Overcast
6:56 AM -23.8 °F - -29.2 °F 76% 30.11 in 10.0 mi Calm Calm - N/A   Overcast
7:16 AM -23.8 °F - -29.2 °F 76% 30.11 in 4.0 mi Calm Calm - N/A   Overcast
7:33 AM -25.6 °F - - N/A% 30.11 in 3.0 mi Calm Calm - N/A   Ice Crystals
7:36 AM -25.6 °F - - N/A% 30.11 in 3.0 mi Calm Calm - N/A   Scattered Clouds
8:16 AM -27.4 °F - - N/A% 30.12 in 8.0 mi Calm Calm - N/A   Partly Cloudy
8:36 AM -25.6 °F -37.1 °F -27.4 °F 91% 30.13 in 1.0 mi ENE 3.5 mph - N/A   Clear
8:56 AM -23.8 °F - -23.8 °F 100% 30.12 in 10.0 mi Calm Calm - N/A   Partly Cloudy
9:16 AM -23.8 °F - - N/A% 30.13 in 10.0 mi Calm Calm - N/A   Scattered Clouds
9:36 AM -23.8 °F - - N/A% 30.12 in 10.0 mi Calm Calm - N/A   Overcast
9:56 AM -20.2 °F - -20.2 °F 100% 30.13 in 10.0 mi Calm Calm - N/A   Mostly Cloudy
10:16 AM -18.4 °F - -25.6 °F 70% 30.13 in 8.0 mi Calm Calm - N/A   Overcast
10:36 AM -18.4 °F - -20.2 °F 91% 30.13 in 10.0 mi Calm Calm - N/A   Overcast
10:56 AM -16.6 °F - -18.4 °F 92% 30.13 in 10.0 mi Calm Calm - N/A   Mostly Cloudy
11:16 AM -14.8 °F - -16.6 °F 92% 30.13 in 10.0 mi Calm Calm - N/A   Mostly Cloudy
11:36 AM -13.0 °F - -14.8 °F 92% 30.14 in 10.0 mi Calm Calm - N/A   Mostly Cloudy
11:56 AM -11.2 °F -20.6 °F -13.0 °F 92% 30.14 in 10.0 mi ENE 3.5 mph - N/A   Mostly Cloudy
12:16 PM -11.2 °F - -14.8 °F 84% 30.14 in 10.0 mi Calm Calm - N/A   Overcast
12:36 PM -9.4 °F -18.6 °F -9.4 °F 100% 30.14 in 10.0 mi NE 3.5 mph - N/A   Overcast
12:56 PM -9.4 °F -20.9 °F -14.8 °F 77% 30.15 in 10.0 mi NE 4.6 mph - N/A   Overcast
1:16 PM -9.4 °F -18.6 °F -13.0 °F 84% 30.15 in 10.0 mi North 3.5 mph - N/A   Overcast
1:36 PM -11.2 °F -23.0 °F -16.6 °F 77% 30.15 in 10.0 mi NNE 4.6 mph - N/A   Overcast
1:56 PM -11.2 °F -23.0 °F -14.8 °F 84% 30.15 in 10.0 mi NNE 4.6 mph - N/A   Overcast
2:16 PM -11.2 °F -24.8 °F -14.8 °F 84% 30.15 in 10.0 mi NNE 5.8 mph - N/A   Overcast
2:36 PM -11.2 °F -23.0 °F -14.8 °F 84% 30.15 in 10.0 mi NNE 4.6 mph - N/A   Overcast
2:56 PM -9.4 °F -18.6 °F -11.2 °F 92% 30.15 in 10.0 mi NE 3.5 mph - N/A   Overcast
3:16 PM -9.4 °F -18.6 °F -11.2 °F 92% 30.15 in 10.0 mi NE 3.5 mph - N/A   Overcast
3:36 PM -7.6 °F - -9.4 °F 92% 30.15 in 10.0 mi Calm Calm - N/A   Overcast
3:56 PM -7.6 °F -16.5 °F -9.4 °F 92% 30.15 in 10.0 mi NE 3.5 mph - N/A   Overcast
4:36 PM -5.8 °F - -7.6 °F 92% 30.14 in 10.0 mi Calm Calm - N/A   Overcast
4:56 PM -5.8 °F -14.5 °F -7.6 °F 92% 30.13 in 10.0 mi NE 3.5 mph - N/A   Overcast
5:16 PM -5.8 °F -16.7 °F -7.6 °F 92% 30.13 in 10.0 mi NE 4.6 mph - N/A   Overcast
5:30 PM -5.8 °F -16.7 °F -7.6 °F 92% 30.12 in 10.0 mi North 4.6 mph - N/A   Overcast
5:36 PM -5.8 °F -18.4 °F -7.6 °F 92% 30.12 in 10.0 mi NE 5.8 mph - N/A   Overcast
5:56 PM -4.0 °F -16.3 °F -5.8 °F 92% 30.12 in 10.0 mi ENE 5.8 mph - N/A   Overcast
6:16 PM -4.0 °F -16.3 °F -5.8 °F 92% 30.11 in 10.0 mi ENE 5.8 mph - N/A   Overcast
6:18 PM -4.0 °F -16.3 °F -5.8 °F 92% 30.11 in 10.0 mi NNE 5.8 mph - N/A   Overcast
6:36 PM -2.2 °F -12.5 °F -5.8 °F 85% 30.11 in 10.0 mi ENE 4.6 mph - N/A   Overcast
6:56 PM -2.2 °F -12.5 °F -2.2 °F 100% 30.10 in 10.0 mi ENE 4.6 mph - N/A   Overcast
7:16 PM -2.2 °F -12.5 °F -5.8 °F 85% 30.10 in 7.0 mi NE 4.6 mph - N/A   Overcast
7:36 PM -2.2 °F -15.6 °F -2.2 °F 100% 30.10 in 10.0 mi NE 6.9 mph - N/A   Overcast
7:56 PM -2.2 °F -15.6 °F -5.8 °F 85% 30.09 in 10.0 mi NE 6.9 mph - N/A   Overcast
8:16 PM -2.2 °F -14.2 °F -2.2 °F 100% 30.09 in 10.0 mi NE 5.8 mph - N/A   Overcast
8:36 PM -2.2 °F -15.6 °F -2.2 °F 100% 30.08 in 10.0 mi NE 6.9 mph - N/A   Overcast
8:56 PM -2.2 °F -15.6 °F -4.0 °F 92% 30.08 in 10.0 mi NE 6.9 mph - N/A   Overcast
9:16 PM -0.4 °F -13.4 °F -2.2 °F 92% 30.08 in 10.0 mi ENE 6.9 mph - N/A   Overcast
9:36 PM -0.4 °F -8.3 °F -2.2 °F 92% 30.08 in 10.0 mi ENE 3.5 mph - N/A   Overcast
9:56 PM -0.4 °F -10.4 °F -2.2 °F 92% 30.07 in 10.0 mi ENE 4.6 mph - N/A   Overcast
10:16 PM -0.4 °F -12.0 °F -2.2 °F 92% 30.06 in 10.0 mi ENE 5.8 mph - N/A   Overcast
10:36 PM -0.4 °F -10.4 °F -2.2 °F 92% 30.06 in 10.0 mi ENE 4.6 mph - N/A   Overcast
10:56 PM -0.4 °F -12.0 °F -2.2 °F 92% 30.05 in 10.0 mi ENE 5.8 mph - N/A   Overcast
11:16 PM -0.4 °F -13.4 °F -0.4 °F 100% 30.05 in 10.0 mi NE 6.9 mph - N/A   Overcast
11:36 PM -0.4 °F -13.4 °F -2.2 °F 92% 30.05 in 10.0 mi NE 6.9 mph - N/A   Overcast
11:56 PM -0.4 °F -12.0 °F -2.2 °F 92% 30.04 in 10.0 mi NE 5.8 mph - N/A   Overcast